星链-1134 (STARLINK-1134 )

导读

STARLINK-1134是美国SpaceX公司星链(Starlink)星座的一员,于2020年1月29日发射升空。星链项目旨在构建全球卫星互联网系统,为全球提供高速低延迟网络服务。 作为低轨通信卫星,STARLINK-1134运行在近地轨道,依托相控阵天线技术,可与地面终端及其他卫星组网通信,助力实现全球覆盖,为偏远地区等场景提供互联网接入服务。

Basic Information
目录编号:
45048
目录名称:
STARLINK-1134
国际标识:
2020-006E
轨道中心:
EARTH
卫星名称:
星链-1134
卫星全名:
星链-1134 (STARLINK-1134 )
卫星状态:
在轨 (已飞行2327 天)
发射日期:
2020-01-29 UTC
国别 :
美国 (US)
星等 :
--
Orbit Information
数据来源 国际轨道数据 AOE轨道数据
星历时间 2026-06-13T04:00:02+0800
5小时前
查看轨道信息
2026-06-09T00:00:00+0800
4天前
查看轨道信息
半长轴 6767.026km 6770.295km
偏心率 0.0007727 0.0007876
轨道倾角 53.022° 53.023°
近地点辐角 82.866° 62.582°
升交点赤经 141.201° 161.483°
平近点角 286.026° 307.128°
近地点 383.66km 386.825km
远地点 394.118km 397.491km
周期 92.333分钟 92.400分钟
每日圈数 15.595741 15.584448
Detailed Information
固有亮度:
5
最大亮度:
2.5
卫星平台:
Starlink V1.0
覆盖范围:
全球
运营商:
太空探索技术公司
运营商所在国:
美国
制造商(研发单位):
太空探索技术公司
制造商所在国:
美国
使用方式:
暂无
Satellite Introduction
星链(Starlink)计划是由太空探索技术公司(SpaceX)提出的一个巨型低轨卫星互联网星座项目,计划在2019年至2024年间在太空搭建由约1.2万颗卫星组成的“星链”网络,其中1584颗将部署在地球上空550千米处的近地轨道,并从2020年开始工作。该卫星仍在工作。
2D Orbit Map
3D Orbit Map
Orbit Altitude Analysis Chart
Orbit Inclination Analysis Chart
Orbit Comprehensive Analysis Chart
View Comprehensive Chart